Regional Weather Roundup
Issued by NWS

Home | Current Version | Previous Version | Graphics & Text | Print | Product List | Glossary On
Versions: 1 2 3 4 5 6 7 8 9 10 11 12 13 14 15 16 17 18 19 20 21 22 23 24 25 26 27 28 29 30 31 32 33 34 35 36 37 38 39 40 41 42 43 44 45 46 47 48 49 50
000
ASUS45 KCYS 300910
RWRWY

WYOMING REGIONAL WEATHER ROUNDUP
NATIONAL WEATHER SERVICE CHEYENNE WY
300 AM MDT TUE JUN 30 2015

NOTE:  "FAIR" INDICATES FEW OR NO CLOUDS BELOW 12,000 FEET
WITH NO SIGNIFICANT WEATHER AND/OR OBSTRUCTIONS TO VISIBILITY.

WYZ001-301000-
YELLOWSTONE NATIONAL PARK

CITY           SKY/WX    TMP DP  RH WIND       PRES   REMARKS
LK YELLOWSTONE   N/A     56  49  77 CALM      30.39F
W YELLOWSTONE  NOT AVBL

$$
WYZ002>013-054>058-071-098>099-301000-
NORTHERN WYOMING

CITY           SKY/WX    TMP DP  RH WIND       PRES   REMARKS
JACKSON        FAIR      61  52  72 CALM      30.29F
CODY           FAIR      73  52  46 SW14      30.12F
GREYBULL       FAIR      77  52  41 N3        30.03F
WORLAND        FAIR      73  53  49 S8        30.09S
SHERIDAN       FAIR      69  53  56 S5        30.03F
BUFFALO        FAIR      69  49  48 SW8       30.12F
GILLETTE       FAIR      67  53  61 SW6       30.07F
HULETT         FAIR      68  54  60 S7        30.05F
NEWCASTLE      FAIR      63  54  72 CALM      30.10S

$$
WYZ014>020-022>026-101>103-301000-
CENTRAL WYOMING

CITY           SKY/WX    TMP DP  RH WIND       PRES   REMARKS
BIG PINEY      FAIR      61  47  59 NW9       30.31F
PINEDALE       FAIR      64  46  52 CALM      30.31F
DUBOIS         FAIR      59  50  72 NW12      30.34S
LANDER         FAIR      71  48  43 CALM      30.20F
RIVERTON       FAIR      73  46  38 N9        30.19F
CASPER         FAIR      59  45  59 W3        30.16F
DOUGLAS        FAIR      61  51  70 CALM      30.15F

$$
WYZ021-027>030-104>119-301000-
SOUTHERN WYOMING

CITY           SKY/WX    TMP DP  RH WIND       PRES   REMARKS
EVANSTON       FAIR      68  43  40 W3        30.30R
KEMMERER       FAIR      63  43  48 N13G20    30.30F
FORT BRIDGER   SUNNY     66  39  37 NW7       30.30S
ROCK SPRINGS   FAIR      68  39  34 E5        30.25F
DIXON          FAIR      61  44  53 E8        30.28F
RAWLINS        FAIR      59  44  57 CALM      30.28F
SARATOGA       FAIR      55  45  67 CALM      30.30F
LARAMIE        FAIR      54  48  80 S7        30.31F
CHEYENNE       FAIR      58  45  62 W8        30.23F
TORRINGTON     FAIR      61  54  77 N6        30.08F
PINE BLUFFS    FAIR      54  52  94 CALM      30.18F

$$



USA.gov is the U.S. government's official web portal to all federal, state and local government web resources and services.